Year,Month,Day,Hour,Minute,Value (Times are PST for temperature in C)
2016,04,15,00,00,10.30
2016,04,15,00,01,10.30
2016,04,15,00,02,10.30
2016,04,15,00,03,10.30
2016,04,15,00,04,10.30
2016,04,15,00,05,10.30
2016,04,15,00,06,10.30
2016,04,15,00,07,10.30
2016,04,15,00,08,10.30
2016,04,15,00,09,10.20
2016,04,15,00,10,10.20
2016,04,15,00,11,10.20
2016,04,15,00,12,10.20
2016,04,15,00,13,10.20
2016,04,15,00,14,10.20
2016,04,15,00,15,10.20
2016,04,15,00,16,10.20
2016,04,15,00,17,10.20
2016,04,15,00,18,10.20
2016,04,15,00,19,10.20
2016,04,15,00,20,10.20
2016,04,15,00,21,10.20
2016,04,15,00,22,10.20
2016,04,15,00,23,10.10
2016,04,15,00,24,10.10
2016,04,15,00,25,10.10
2016,04,15,00,26,10.10
2016,04,15,00,27,10.10
2016,04,15,00,28,10.10
2016,04,15,00,29,10.00
2016,04,15,00,30,10.00
2016,04,15,00,31,10.00
2016,04,15,00,32,9.90
2016,04,15,00,33,9.90
2016,04,15,00,34,9.90
2016,04,15,00,35,9.90
2016,04,15,00,36,9.90
2016,04,15,00,37,9.90
2016,04,15,00,38,9.90
2016,04,15,00,39,9.80
2016,04,15,00,40,9.80
2016,04,15,00,41,9.80
2016,04,15,00,42,9.80
2016,04,15,00,43,9.80
2016,04,15,00,44,9.80
2016,04,15,00,45,9.80
2016,04,15,00,46,9.80
2016,04,15,00,47,9.80
2016,04,15,00,48,9.80
2016,04,15,00,49,9.80
2016,04,15,00,50,9.80
2016,04,15,00,51,9.70
2016,04,15,00,52,9.70
2016,04,15,00,53,9.70
2016,04,15,00,54,9.70
2016,04,15,00,55,9.70
2016,04,15,00,56,9.70
2016,04,15,00,57,9.70
2016,04,15,00,58,9.70
2016,04,15,00,59,9.70
2016,04,15,01,00,9.60
2016,04,15,01,01,9.60
2016,04,15,01,02,9.60
2016,04,15,01,03,9.60
2016,04,15,01,04,9.60
2016,04,15,01,05,9.50
2016,04,15,01,06,9.50
2016,04,15,01,07,9.50
2016,04,15,01,08,9.50
2016,04,15,01,09,9.40
2016,04,15,01,10,9.40
2016,04,15,01,11,9.40
2016,04,15,01,12,9.30
2016,04,15,01,13,9.30
2016,04,15,01,14,9.30
2016,04,15,01,15,9.30
2016,04,15,01,16,9.30
2016,04,15,01,17,9.20
2016,04,15,01,18,9.20
2016,04,15,01,19,9.20
2016,04,15,01,20,9.20
2016,04,15,01,21,9.10
2016,04,15,01,22,9.10
2016,04,15,01,23,9.10
2016,04,15,01,24,9.10
2016,04,15,01,25,9.00
2016,04,15,01,26,9.00
2016,04,15,01,27,8.90
2016,04,15,01,28,8.90
2016,04,15,01,29,8.80
2016,04,15,01,30,8.80
2016,04,15,01,31,8.80
2016,04,15,01,32,8.80
2016,04,15,01,33,8.70
2016,04,15,01,34,8.70
2016,04,15,01,35,8.70
2016,04,15,01,36,8.70
2016,04,15,01,37,8.70
2016,04,15,01,38,8.70
2016,04,15,01,39,8.70
2016,04,15,01,40,8.70
2016,04,15,01,41,8.70
2016,04,15,01,42,8.70
2016,04,15,01,43,8.70
2016,04,15,01,44,8.70
2016,04,15,01,45,8.70
2016,04,15,01,46,8.70
2016,04,15,01,47,8.70
2016,04,15,01,48,8.70
2016,04,15,01,49,8.70
2016,04,15,01,50,8.70
2016,04,15,01,51,8.70
2016,04,15,01,52,8.60
2016,04,15,01,53,8.60
2016,04,15,01,54,8.60
2016,04,15,01,55,8.60
2016,04,15,01,56,8.60
2016,04,15,01,57,8.60
2016,04,15,01,58,8.60
2016,04,15,01,59,8.60
2016,04,15,02,00,8.60
2016,04,15,02,01,8.60
2016,04,15,02,02,8.50
2016,04,15,02,03,8.50
2016,04,15,02,04,8.50
2016,04,15,02,05,8.50
2016,04,15,02,06,8.50
2016,04,15,02,07,8.50
2016,04,15,02,08,8.50
2016,04,15,02,09,8.50
2016,04,15,02,10,8.50
2016,04,15,02,11,8.50
2016,04,15,02,12,8.50
2016,04,15,02,13,8.50
2016,04,15,02,14,8.50
2016,04,15,02,15,8.40
2016,04,15,02,16,8.40
2016,04,15,02,17,8.40
2016,04,15,02,18,8.40
2016,04,15,02,19,8.40
2016,04,15,02,20,8.40
2016,04,15,02,21,8.40
2016,04,15,02,22,8.40
2016,04,15,02,23,8.40
2016,04,15,02,24,8.40
2016,04,15,02,25,8.30
2016,04,15,02,26,8.40
2016,04,15,02,27,8.40
2016,04,15,02,28,8.40
2016,04,15,02,29,8.50
2016,04,15,02,30,8.50
2016,04,15,02,31,8.50
2016,04,15,02,32,8.60
2016,04,15,02,33,8.70
2016,04,15,02,34,8.80
2016,04,15,02,35,8.80
2016,04,15,02,36,8.90
2016,04,15,02,37,8.90
2016,04,15,02,38,9.00
2016,04,15,02,39,9.00
2016,04,15,02,40,9.10
2016,04,15,02,41,9.20
2016,04,15,02,42,9.20
2016,04,15,02,43,9.20
2016,04,15,02,44,9.30
2016,04,15,02,45,9.30
2016,04,15,02,46,9.30
2016,04,15,02,47,9.30
2016,04,15,02,48,9.40
2016,04,15,02,49,9.40
2016,04,15,02,50,9.40
2016,04,15,02,51,9.40
2016,04,15,02,52,9.40
2016,04,15,02,53,9.40
2016,04,15,02,54,9.50
2016,04,15,02,55,9.50
2016,04,15,02,56,9.50
2016,04,15,02,57,9.50
2016,04,15,02,58,9.50
2016,04,15,02,59,9.60
2016,04,15,03,00,9.60
2016,04,15,03,01,9.60
2016,04,15,03,02,9.60
2016,04,15,03,03,9.60
2016,04,15,03,04,9.60
2016,04,15,03,05,9.60
2016,04,15,03,06,9.60
2016,04,15,03,07,9.60
2016,04,15,03,08,9.60
2016,04,15,03,09,9.60
2016,04,15,03,10,9.60
2016,04,15,03,11,9.70
2016,04,15,03,12,9.70
2016,04,15,03,13,9.70
2016,04,15,03,14,9.70
2016,04,15,03,15,9.70
2016,04,15,03,16,9.70
2016,04,15,03,17,9.70
2016,04,15,03,18,9.70
2016,04,15,03,19,9.70
2016,04,15,03,20,9.70
2016,04,15,03,21,9.70
2016,04,15,03,22,9.70
2016,04,15,03,23,9.70
2016,04,15,03,24,9.60
2016,04,15,03,25,9.60
2016,04,15,03,26,9.60
2016,04,15,03,27,9.60
2016,04,15,03,28,9.50
2016,04,15,03,29,9.50
2016,04,15,03,30,9.50
2016,04,15,03,31,9.40
2016,04,15,03,32,9.40
2016,04,15,03,33,9.40
2016,04,15,03,34,9.40
2016,04,15,03,35,9.40
2016,04,15,03,36,9.40
2016,04,15,03,37,9.40
2016,04,15,03,38,9.40
2016,04,15,03,39,9.40
2016,04,15,03,40,9.40
2016,04,15,03,41,9.40
2016,04,15,03,42,9.40
2016,04,15,03,43,9.40
2016,04,15,03,44,9.40
2016,04,15,03,45,9.40
2016,04,15,03,46,9.40
2016,04,15,03,47,9.40
2016,04,15,03,48,9.40
2016,04,15,03,49,9.40
2016,04,15,03,50,9.40
2016,04,15,03,51,9.40
2016,04,15,03,52,9.30
2016,04,15,03,53,9.30
2016,04,15,03,54,9.30
2016,04,15,03,55,9.30
2016,04,15,03,56,9.30
2016,04,15,03,57,9.30
2016,04,15,03,58,9.30
2016,04,15,03,59,9.20
2016,04,15,04,00,9.20
2016,04,15,04,01,9.20
2016,04,15,04,02,9.20
2016,04,15,04,03,9.20
2016,04,15,04,04,9.20
2016,04,15,04,05,9.20
2016,04,15,04,06,9.20
2016,04,15,04,07,9.30
2016,04,15,04,08,9.30
2016,04,15,04,09,9.30
2016,04,15,04,10,9.30
2016,04,15,04,11,9.30
2016,04,15,04,12,9.30
2016,04,15,04,13,9.30
2016,04,15,04,14,9.30
2016,04,15,04,15,9.30
2016,04,15,04,16,9.30
2016,04,15,04,17,9.30
2016,04,15,04,18,9.20
2016,04,15,04,19,9.20
2016,04,15,04,20,9.20
2016,04,15,04,21,9.20
2016,04,15,04,22,9.20
2016,04,15,04,23,9.20
2016,04,15,04,24,9.20
2016,04,15,04,25,9.20
2016,04,15,04,26,9.20
2016,04,15,04,27,9.20
2016,04,15,04,28,9.20
2016,04,15,04,29,9.20
2016,04,15,04,30,9.20
2016,04,15,04,31,9.10
2016,04,15,04,32,9.10
2016,04,15,04,33,9.10
2016,04,15,04,34,9.10
2016,04,15,04,35,9.00
2016,04,15,04,36,9.00
2016,04,15,04,37,9.00
2016,04,15,04,38,9.00
2016,04,15,04,39,8.90
2016,04,15,04,40,8.90
2016,04,15,04,41,8.90
2016,04,15,04,42,8.90
2016,04,15,04,43,8.90
2016,04,15,04,44,8.90
2016,04,15,04,45,8.90
2016,04,15,04,46,8.90
2016,04,15,04,47,8.90
2016,04,15,04,48,8.90
2016,04,15,04,49,8.90
2016,04,15,04,50,8.90
2016,04,15,04,51,8.90
2016,04,15,04,52,8.90
2016,04,15,04,53,8.80
2016,04,15,04,54,8.80
2016,04,15,04,55,8.80
2016,04,15,04,56,8.80
2016,04,15,04,57,8.80
2016,04,15,04,58,8.80
2016,04,15,04,59,8.80
2016,04,15,05,00,8.70
2016,04,15,05,01,8.70
2016,04,15,05,02,8.70
2016,04,15,05,03,8.70
2016,04,15,05,04,8.70
2016,04,15,05,05,8.70
2016,04,15,05,06,8.70
2016,04,15,05,07,8.70
2016,04,15,05,08,8.60
2016,04,15,05,09,8.60
2016,04,15,05,10,8.60
2016,04,15,05,11,8.60
2016,04,15,05,12,8.60
2016,04,15,05,13,8.60
2016,04,15,05,14,8.60
2016,04,15,05,15,8.50
2016,04,15,05,16,8.50
2016,04,15,05,17,8.50
2016,04,15,05,18,8.50
2016,04,15,05,19,8.50
2016,04,15,05,20,8.50
2016,04,15,05,21,8.50
2016,04,15,05,22,8.40
2016,04,15,05,23,8.40
2016,04,15,05,24,8.40
2016,04,15,05,25,8.30
2016,04,15,05,26,8.30
2016,04,15,05,27,8.30
2016,04,15,05,28,8.30
2016,04,15,05,29,8.30
2016,04,15,05,30,8.30
2016,04,15,05,31,8.30
2016,04,15,05,32,8.30
2016,04,15,05,33,8.30
2016,04,15,05,34,8.30
2016,04,15,05,35,8.30
2016,04,15,05,36,8.30
2016,04,15,05,37,8.30
2016,04,15,05,38,8.30
2016,04,15,05,39,8.20
2016,04,15,05,40,8.20
2016,04,15,05,41,8.20
2016,04,15,05,42,8.20
2016,04,15,05,43,8.20
2016,04,15,05,44,8.20
2016,04,15,05,45,8.20
2016,04,15,05,46,8.20
2016,04,15,05,47,8.20
2016,04,15,05,48,8.20
2016,04,15,05,49,8.10
2016,04,15,05,50,8.10
2016,04,15,05,51,8.10
2016,04,15,05,52,8.10
2016,04,15,05,53,8.10
2016,04,15,05,54,8.10
2016,04,15,05,55,8.10
2016,04,15,05,56,8.10
2016,04,15,05,57,8.00
2016,04,15,05,58,8.00
2016,04,15,05,59,8.00
2016,04,15,06,00,8.00
2016,04,15,06,01,8.00
2016,04,15,06,02,8.00
2016,04,15,06,03,8.00
2016,04,15,06,04,8.00
2016,04,15,06,05,7.90
2016,04,15,06,06,7.90
2016,04,15,06,07,7.90
2016,04,15,06,08,7.90
2016,04,15,06,09,7.90
2016,04,15,06,10,7.90
2016,04,15,06,11,7.90
2016,04,15,06,12,7.90
2016,04,15,06,13,7.90
2016,04,15,06,14,7.80
2016,04,15,06,15,7.80
2016,04,15,06,16,7.80
2016,04,15,06,17,7.70
2016,04,15,06,18,7.70
2016,04,15,06,19,7.60
2016,04,15,06,20,7.50
2016,04,15,06,21,7.50
2016,04,15,06,22,7.40
2016,04,15,06,23,7.30
2016,04,15,06,24,7.30
2016,04,15,06,25,7.20
2016,04,15,06,26,7.10
2016,04,15,06,27,7.10
2016,04,15,06,28,7.00
2016,04,15,06,29,6.90
2016,04,15,06,30,6.90
2016,04,15,06,31,6.90
2016,04,15,06,32,6.80
2016,04,15,06,33,6.80
2016,04,15,06,34,6.70
2016,04,15,06,35,6.70
2016,04,15,06,36,6.70
2016,04,15,06,37,6.70
2016,04,15,06,38,6.70
2016,04,15,06,39,6.70
2016,04,15,06,40,6.70
2016,04,15,06,41,6.70
2016,04,15,06,42,6.60
2016,04,15,06,43,6.60
2016,04,15,06,44,6.60
2016,04,15,06,45,6.60
2016,04,15,06,46,6.50
2016,04,15,06,47,6.50
2016,04,15,06,48,6.40
2016,04,15,06,49,6.40
2016,04,15,06,50,6.40
2016,04,15,06,51,6.40
2016,04,15,06,52,6.40
2016,04,15,06,53,6.40
2016,04,15,06,54,6.40
2016,04,15,06,55,6.40
2016,04,15,06,56,6.40
2016,04,15,06,57,6.40
2016,04,15,06,58,6.40
2016,04,15,06,59,6.40
2016,04,15,07,00,6.50
2016,04,15,07,01,6.50
2016,04,15,07,02,6.50
2016,04,15,07,03,6.50
2016,04,15,07,04,6.50
2016,04,15,07,05,6.50
2016,04,15,07,06,6.50
2016,04,15,07,07,6.50
2016,04,15,07,08,6.60
2016,04,15,07,09,6.60
2016,04,15,07,10,6.60
2016,04,15,07,11,6.70
2016,04,15,07,12,6.80
2016,04,15,07,13,6.90
2016,04,15,07,14,6.90
2016,04,15,07,15,7.00
2016,04,15,07,16,7.10
2016,04,15,07,17,7.20
2016,04,15,07,18,7.20
2016,04,15,07,19,7.30
2016,04,15,07,20,7.30
2016,04,15,07,21,7.30
2016,04,15,07,22,7.30
2016,04,15,07,23,7.40
2016,04,15,07,24,7.40
2016,04,15,07,25,7.40
2016,04,15,07,26,7.40
2016,04,15,07,27,7.40
2016,04,15,07,28,7.40
2016,04,15,07,29,7.40
2016,04,15,07,30,7.40
2016,04,15,07,31,7.40
2016,04,15,07,32,7.40
2016,04,15,07,33,7.40
2016,04,15,07,34,7.40
2016,04,15,07,35,7.40
2016,04,15,07,36,7.40
2016,04,15,07,37,7.40
2016,04,15,07,38,7.40
2016,04,15,07,39,7.40
2016,04,15,07,40,7.40
2016,04,15,07,41,7.40
2016,04,15,07,42,7.40
2016,04,15,07,43,7.40
2016,04,15,07,44,7.40
2016,04,15,07,45,7.40
2016,04,15,07,46,7.40
2016,04,15,07,47,7.40
2016,04,15,07,48,7.50
2016,04,15,07,49,7.50
2016,04,15,07,50,7.50
2016,04,15,07,51,7.60
2016,04,15,07,52,7.60
2016,04,15,07,53,7.60
2016,04,15,07,54,7.60
2016,04,15,07,55,7.70
2016,04,15,07,56,7.70
2016,04,15,07,57,7.80
2016,04,15,07,58,7.80
2016,04,15,07,59,7.80
2016,04,15,08,00,7.90
2016,04,15,08,01,7.90
2016,04,15,08,02,8.00
2016,04,15,08,03,8.00
2016,04,15,08,04,8.10
2016,04,15,08,05,8.10
2016,04,15,08,06,8.20
2016,04,15,08,07,8.30
2016,04,15,08,08,8.40
2016,04,15,08,09,8.50
2016,04,15,08,10,8.60
2016,04,15,08,11,8.70
2016,04,15,08,12,8.80
2016,04,15,08,13,8.90
2016,04,15,08,14,9.00
2016,04,15,08,15,9.10
2016,04,15,08,16,9.10
2016,04,15,08,17,9.20
2016,04,15,08,18,9.20
2016,04,15,08,19,9.30
2016,04,15,08,20,9.30
2016,04,15,08,21,9.30
2016,04,15,08,22,9.30
2016,04,15,08,23,9.30
2016,04,15,08,24,9.30
2016,04,15,08,25,9.40
2016,04,15,08,26,9.50
2016,04,15,08,27,9.50
2016,04,15,08,28,9.50
2016,04,15,08,29,9.60
2016,04,15,08,30,9.70
2016,04,15,08,31,9.70
2016,04,15,08,32,9.80
2016,04,15,08,33,9.90
2016,04,15,08,34,9.90
2016,04,15,08,35,10.00
2016,04,15,08,36,10.10
2016,04,15,08,37,10.10
2016,04,15,08,38,10.20
2016,04,15,08,39,10.20
2016,04,15,08,40,10.30
2016,04,15,08,41,10.30
2016,04,15,08,42,10.40
2016,04,15,08,43,10.50
2016,04,15,08,44,10.50
2016,04,15,08,45,10.60
2016,04,15,08,46,10.60
2016,04,15,08,47,10.70
2016,04,15,08,48,10.70
2016,04,15,08,49,10.80
2016,04,15,08,50,10.80
2016,04,15,08,51,10.80
2016,04,15,08,52,10.80
2016,04,15,08,53,10.80
2016,04,15,08,54,10.90
2016,04,15,08,55,10.90
2016,04,15,08,56,11.00
2016,04,15,08,57,11.10
2016,04,15,08,58,11.10
2016,04,15,08,59,11.10
2016,04,15,09,00,11.20
2016,04,15,09,01,11.20
2016,04,15,09,02,11.30
2016,04,15,09,03,11.30
2016,04,15,09,04,11.30
2016,04,15,09,05,11.40
2016,04,15,09,06,11.40
2016,04,15,09,07,11.40
2016,04,15,09,08,11.40
2016,04,15,09,09,11.50
2016,04,15,09,10,11.50
2016,04,15,09,11,11.60
2016,04,15,09,12,11.60
2016,04,15,09,13,11.70
2016,04,15,09,14,11.70
2016,04,15,09,15,11.70
2016,04,15,09,16,11.70
2016,04,15,09,17,11.80
2016,04,15,09,18,11.80
2016,04,15,09,19,11.80
2016,04,15,09,20,11.80
2016,04,15,09,21,11.90
2016,04,15,09,22,12.00
2016,04,15,09,23,12.10
2016,04,15,09,24,12.10
2016,04,15,09,25,12.20
2016,04,15,09,26,12.30
2016,04,15,09,27,12.30
2016,04,15,09,28,12.40
2016,04,15,09,29,12.40
2016,04,15,09,30,12.40
2016,04,15,09,31,12.50
2016,04,15,09,32,12.50
2016,04,15,09,33,12.50
2016,04,15,09,34,12.60
2016,04,15,09,35,12.70
2016,04,15,09,36,12.70
2016,04,15,09,37,12.80
2016,04,15,09,38,12.80
2016,04,15,09,39,12.90
2016,04,15,09,40,13.00
2016,04,15,09,41,13.00
2016,04,15,09,42,13.10
2016,04,15,09,43,13.20
2016,04,15,09,44,13.20
2016,04,15,09,45,13.30
2016,04,15,09,46,13.30
2016,04,15,09,47,13.30
2016,04,15,09,48,13.30
2016,04,15,09,49,13.30
2016,04,15,09,50,13.30
2016,04,15,09,51,13.30
2016,04,15,09,52,13.30
2016,04,15,09,53,13.20
2016,04,15,09,54,13.20
2016,04,15,09,55,13.10
2016,04,15,09,56,13.10
2016,04,15,09,57,13.10
2016,04,15,09,58,13.10
2016,04,15,09,59,13.10
2016,04,15,10,00,13.10
2016,04,15,10,01,13.10
2016,04,15,10,02,13.20
2016,04,15,10,03,13.20
2016,04,15,10,04,13.20
2016,04,15,10,05,13.20
2016,04,15,10,06,13.20
2016,04,15,10,07,13.20
2016,04,15,10,08,13.10
2016,04,15,10,09,13.10
2016,04,15,10,10,13.10
2016,04,15,10,11,13.10
2016,04,15,10,12,13.10
2016,04,15,10,13,13.10
2016,04,15,10,14,13.10
2016,04,15,10,15,13.10
2016,04,15,10,16,13.00
2016,04,15,10,17,13.00
2016,04,15,10,18,13.00
2016,04,15,10,19,13.00
2016,04,15,10,20,12.90
2016,04,15,10,21,12.90
2016,04,15,10,22,12.90
2016,04,15,10,23,12.90
2016,04,15,10,24,12.90
2016,04,15,10,25,12.90
2016,04,15,10,26,12.90
2016,04,15,10,27,12.90
2016,04,15,10,28,12.90
2016,04,15,10,29,13.00
2016,04,15,10,30,13.00
2016,04,15,10,31,12.90
2016,04,15,10,32,12.90
2016,04,15,10,33,12.90
2016,04,15,10,34,12.90
2016,04,15,10,35,12.90
2016,04,15,10,36,12.80
2016,04,15,10,37,12.80
2016,04,15,10,38,12.90
2016,04,15,10,39,12.90
2016,04,15,10,40,12.90
2016,04,15,10,41,12.90
2016,04,15,10,42,12.90
2016,04,15,10,43,12.90
2016,04,15,10,44,12.90
2016,04,15,10,45,12.90
2016,04,15,10,46,13.00
2016,04,15,10,47,13.00
2016,04,15,10,48,13.10
2016,04,15,10,49,13.10
2016,04,15,10,50,13.20
2016,04,15,10,51,13.10
2016,04,15,10,52,13.10
2016,04,15,10,53,13.10
2016,04,15,10,54,13.10
2016,04,15,10,55,13.10
2016,04,15,10,56,13.10
2016,04,15,10,57,13.10
2016,04,15,10,58,13.10
2016,04,15,10,59,13.10
2016,04,15,11,00,13.10
2016,04,15,11,01,13.10
2016,04,15,11,02,13.10
2016,04,15,11,03,13.20
2016,04,15,11,04,13.20
2016,04,15,11,05,13.20
2016,04,15,11,06,13.30
2016,04,15,11,07,13.30
2016,04,15,11,08,13.20
2016,04,15,11,09,13.30
2016,04,15,11,10,13.30
2016,04,15,11,11,13.30
2016,04,15,11,12,13.30
2016,04,15,11,13,13.30
2016,04,15,11,14,13.30
2016,04,15,11,15,13.40
2016,04,15,11,16,13.40
2016,04,15,11,17,13.40
2016,04,15,11,18,13.40
2016,04,15,11,19,13.40
2016,04,15,11,20,13.50
2016,04,15,11,21,13.50
2016,04,15,11,22,13.60
2016,04,15,11,23,13.60
2016,04,15,11,24,13.60
2016,04,15,11,25,13.60
2016,04,15,11,26,13.70
2016,04,15,11,27,13.70
2016,04,15,11,28,13.70
2016,04,15,11,29,13.70
2016,04,15,11,30,13.80
2016,04,15,11,31,13.90
2016,04,15,11,32,13.90
2016,04,15,11,33,13.90
2016,04,15,11,34,13.90
2016,04,15,11,35,13.90
2016,04,15,11,36,13.90
2016,04,15,11,37,13.80
2016,04,15,11,38,13.80
2016,04,15,11,39,13.80
2016,04,15,11,40,13.70
2016,04,15,11,41,13.70
2016,04,15,11,42,13.70
2016,04,15,11,43,13.70
2016,04,15,11,44,13.80
2016,04,15,11,45,13.90
2016,04,15,11,46,13.90
2016,04,15,11,47,13.90
2016,04,15,11,48,13.80
2016,04,15,11,49,13.80
2016,04,15,11,50,13.90
2016,04,15,11,51,13.90
2016,04,15,11,52,14.10
2016,04,15,11,53,14.20
2016,04,15,11,54,14.30
2016,04,15,11,55,14.30
2016,04,15,11,56,14.30
2016,04,15,11,57,14.30
2016,04,15,11,58,14.20
2016,04,15,11,59,14.10
2016,04,15,12,00,14.10
2016,04,15,12,01,14.10
2016,04,15,12,02,14.00
2016,04,15,12,03,14.00
2016,04,15,12,04,13.90
2016,04,15,12,05,13.90
2016,04,15,12,06,13.90
2016,04,15,12,07,13.90
2016,04,15,12,08,13.90
2016,04,15,12,09,13.90
2016,04,15,12,10,13.80
2016,04,15,12,11,13.80
2016,04,15,12,12,13.80
2016,04,15,12,13,13.80
2016,04,15,12,14,13.80
2016,04,15,12,15,13.80
2016,04,15,12,16,13.80
2016,04,15,12,17,13.80
2016,04,15,12,18,13.90
2016,04,15,12,19,13.90
2016,04,15,12,20,13.90
2016,04,15,12,21,13.90
2016,04,15,12,22,13.90
2016,04,15,12,23,13.90
2016,04,15,12,24,13.90
2016,04,15,12,25,13.80
2016,04,15,12,26,13.80
2016,04,15,12,27,13.80
2016,04,15,12,28,13.80
2016,04,15,12,29,13.80
2016,04,15,12,30,13.80
2016,04,15,12,31,13.90
2016,04,15,12,32,13.90
2016,04,15,12,33,13.90
2016,04,15,12,34,13.90
2016,04,15,12,35,13.90
2016,04,15,12,36,13.90
2016,04,15,12,37,13.90
2016,04,15,12,38,13.80
2016,04,15,12,39,13.70
2016,04,15,12,40,13.70
2016,04,15,12,41,13.70
2016,04,15,12,42,13.60
2016,04,15,12,43,13.60
2016,04,15,12,44,13.60
2016,04,15,12,45,13.60
2016,04,15,12,46,13.60
2016,04,15,12,47,13.60
2016,04,15,12,48,13.60
2016,04,15,12,49,13.60
2016,04,15,12,50,13.60
2016,04,15,12,51,13.70
2016,04,15,12,52,13.80
2016,04,15,12,53,13.90
2016,04,15,12,54,14.00
2016,04,15,12,55,14.00
2016,04,15,12,56,14.00
2016,04,15,12,57,14.00
2016,04,15,12,58,14.10
2016,04,15,12,59,14.10
2016,04,15,13,00,14.10
2016,04,15,13,01,14.20
2016,04,15,13,02,14.20
2016,04,15,13,03,14.20
2016,04,15,13,04,14.20
2016,04,15,13,05,14.20
2016,04,15,13,06,14.20
2016,04,15,13,07,14.20
2016,04,15,13,08,14.20
2016,04,15,13,09,14.20
2016,04,15,13,10,14.30
2016,04,15,13,11,14.40
2016,04,15,13,12,14.50
2016,04,15,13,13,14.60
2016,04,15,13,14,14.70
2016,04,15,13,15,14.80
2016,04,15,13,16,14.80
2016,04,15,13,17,14.80
2016,04,15,13,18,14.80
2016,04,15,13,19,14.70
2016,04,15,13,20,14.80
2016,04,15,13,21,14.80
2016,04,15,13,22,14.90
2016,04,15,13,23,15.00
2016,04,15,13,24,15.10
2016,04,15,13,25,15.10
2016,04,15,13,26,15.10
2016,04,15,13,27,15.00
2016,04,15,13,28,15.00
2016,04,15,13,29,14.90
2016,04,15,13,30,14.90
2016,04,15,13,31,15.00
2016,04,15,13,32,15.00
2016,04,15,13,33,15.10
2016,04,15,13,34,15.10
2016,04,15,13,35,15.10
2016,04,15,13,36,15.10
2016,04,15,13,37,15.10
2016,04,15,13,38,15.10
2016,04,15,13,39,15.10
2016,04,15,13,40,15.10
2016,04,15,13,41,15.10
2016,04,15,13,42,15.10
2016,04,15,13,43,15.10
2016,04,15,13,44,15.20
2016,04,15,13,45,15.30
2016,04,15,13,46,15.30
2016,04,15,13,47,15.40
2016,04,15,13,48,15.40
2016,04,15,13,49,15.40
2016,04,15,13,50,15.40
2016,04,15,13,51,15.40
2016,04,15,13,52,15.40
2016,04,15,13,53,15.30
2016,04,15,13,54,15.30
2016,04,15,13,55,15.30
2016,04,15,13,56,15.30
2016,04,15,13,57,15.30
2016,04,15,13,58,15.30
2016,04,15,13,59,15.30
2016,04,15,14,00,15.20
2016,04,15,14,01,15.20
2016,04,15,14,02,15.20
2016,04,15,14,03,15.20
2016,04,15,14,04,15.20
2016,04,15,14,05,15.20
2016,04,15,14,06,15.20
2016,04,15,14,07,15.30
2016,04,15,14,08,15.30
2016,04,15,14,09,15.30
2016,04,15,14,10,15.30
2016,04,15,14,11,15.40
2016,04,15,14,12,15.40
2016,04,15,14,13,15.50
2016,04,15,14,14,15.50
2016,04,15,14,15,15.50
2016,04,15,14,16,15.50
2016,04,15,14,17,15.50
2016,04,15,14,18,15.50
2016,04,15,14,19,15.40
2016,04,15,14,20,15.40
2016,04,15,14,21,15.40
2016,04,15,14,22,15.40
2016,04,15,14,23,15.40
2016,04,15,14,24,15.50
2016,04,15,14,25,15.50
2016,04,15,14,26,15.60
2016,04,15,14,27,15.70
2016,04,15,14,28,15.70
2016,04,15,14,29,15.70
2016,04,15,14,30,15.70
2016,04,15,14,31,15.70
2016,04,15,14,32,15.70
2016,04,15,14,33,15.70
2016,04,15,14,34,15.80
2016,04,15,14,35,15.80
2016,04,15,14,36,15.80
2016,04,15,14,37,15.80
2016,04,15,14,38,15.70
2016,04,15,14,39,15.70
2016,04,15,14,40,15.70
2016,04,15,14,41,15.70
2016,04,15,14,42,15.70
2016,04,15,14,43,15.70
2016,04,15,14,44,15.60
2016,04,15,14,45,15.60
2016,04,15,14,46,15.60
2016,04,15,14,47,15.70
2016,04,15,14,48,15.70
2016,04,15,14,49,15.80
2016,04,15,14,50,15.80
2016,04,15,14,51,15.80
2016,04,15,14,52,15.80
2016,04,15,14,53,15.80
2016,04,15,14,54,15.60
2016,04,15,14,55,15.40
2016,04,15,14,56,15.20
2016,04,15,14,57,14.90
2016,04,15,14,58,14.70
2016,04,15,14,59,14.60
2016,04,15,15,00,14.60
2016,04,15,15,01,14.50
2016,04,15,15,02,14.50
2016,04,15,15,03,14.50
2016,04,15,15,04,14.40
2016,04,15,15,05,14.40
2016,04,15,15,06,14.30
2016,04,15,15,07,14.30
2016,04,15,15,08,14.30
2016,04,15,15,09,14.40
2016,04,15,15,10,14.50
2016,04,15,15,11,14.50
2016,04,15,15,12,14.60
2016,04,15,15,13,14.60
2016,04,15,15,14,14.70
2016,04,15,15,15,14.60
2016,04,15,15,16,14.60
2016,04,15,15,17,14.60
2016,04,15,15,18,14.60
2016,04,15,15,19,14.60
2016,04,15,15,20,14.60
2016,04,15,15,21,14.60
2016,04,15,15,22,14.60
2016,04,15,15,23,14.60
2016,04,15,15,24,14.60
2016,04,15,15,25,14.60
2016,04,15,15,26,14.60
2016,04,15,15,27,14.70
2016,04,15,15,28,14.70
2016,04,15,15,29,14.80
2016,04,15,15,30,14.80
2016,04,15,15,31,14.70
2016,04,15,15,32,14.70
2016,04,15,15,33,14.60
2016,04,15,15,34,14.60
2016,04,15,15,35,14.70
2016,04,15,15,36,14.80
2016,04,15,15,37,14.80
2016,04,15,15,38,14.80
2016,04,15,15,39,14.80
2016,04,15,15,40,14.80
2016,04,15,15,41,14.80
2016,04,15,15,42,14.70
2016,04,15,15,43,14.70
2016,04,15,15,44,14.70
2016,04,15,15,45,14.60
2016,04,15,15,46,14.60
2016,04,15,15,47,14.60
2016,04,15,15,48,14.70
2016,04,15,15,49,14.70
2016,04,15,15,50,14.70
2016,04,15,15,51,14.70
2016,04,15,15,52,14.60
2016,04,15,15,53,14.50
2016,04,15,15,54,14.40
2016,04,15,15,55,14.30
2016,04,15,15,56,14.20
2016,04,15,15,57,14.10
2016,04,15,15,58,14.10
2016,04,15,15,59,14.00
2016,04,15,16,00,14.00
2016,04,15,16,01,14.00
2016,04,15,16,02,14.00
2016,04,15,16,03,14.10
2016,04,15,16,04,14.10
2016,04,15,16,05,14.10
2016,04,15,16,06,14.10
2016,04,15,16,07,14.10
2016,04,15,16,08,14.00
2016,04,15,16,09,14.00
2016,04,15,16,10,14.10
2016,04,15,16,11,14.10
2016,04,15,16,12,14.10
2016,04,15,16,13,14.00
2016,04,15,16,14,13.90
2016,04,15,16,15,13.80
2016,04,15,16,16,13.80
2016,04,15,16,17,13.80
2016,04,15,16,18,13.80
2016,04,15,16,19,13.80
2016,04,15,16,20,13.80
2016,04,15,16,21,13.80
2016,04,15,16,22,13.70
2016,04,15,16,23,13.70
2016,04,15,16,24,13.60
2016,04,15,16,25,13.60
2016,04,15,16,26,13.60
2016,04,15,16,27,13.60
2016,04,15,16,28,13.60
2016,04,15,16,29,13.60
2016,04,15,16,30,13.60
2016,04,15,16,31,13.60
2016,04,15,16,32,13.50
2016,04,15,16,33,13.50
2016,04,15,16,34,13.60
2016,04,15,16,35,13.60
2016,04,15,16,36,13.60
2016,04,15,16,37,13.70
2016,04,15,16,38,13.70
2016,04,15,16,39,13.70
2016,04,15,16,40,13.60
2016,04,15,16,41,13.60
2016,04,15,16,42,13.60
2016,04,15,16,43,13.60
2016,04,15,16,44,13.60
2016,04,15,16,45,13.60
2016,04,15,16,46,13.60
2016,04,15,16,47,13.50
2016,04,15,16,48,13.50
2016,04,15,16,49,13.40
2016,04,15,16,50,13.40
2016,04,15,16,51,13.40
2016,04,15,16,52,13.40
2016,04,15,16,53,13.40
2016,04,15,16,54,13.50
2016,04,15,16,55,13.50
2016,04,15,16,56,13.50
2016,04,15,16,57,13.50
2016,04,15,16,58,13.50
2016,04,15,16,59,13.50
2016,04,15,17,00,13.50
2016,04,15,17,01,13.50
2016,04,15,17,02,13.40
2016,04,15,17,03,13.40
2016,04,15,17,04,13.40
2016,04,15,17,05,13.40
2016,04,15,17,06,13.40
2016,04,15,17,07,13.40
2016,04,15,17,08,13.40
2016,04,15,17,09,13.40
2016,04,15,17,10,13.30
2016,04,15,17,11,13.30
2016,04,15,17,12,13.30
2016,04,15,17,13,13.30
2016,04,15,17,14,13.30
2016,04,15,17,15,13.30
2016,04,15,17,16,13.30
2016,04,15,17,17,13.30
2016,04,15,17,18,13.30
2016,04,15,17,19,13.30
2016,04,15,17,20,13.30
2016,04,15,17,21,13.30
2016,04,15,17,22,13.30
2016,04,15,17,23,13.30
2016,04,15,17,24,13.30
2016,04,15,17,25,13.30
2016,04,15,17,26,13.30
2016,04,15,17,27,13.30
2016,04,15,17,28,13.30
2016,04,15,17,29,13.30
2016,04,15,17,30,13.30
2016,04,15,17,31,13.30
2016,04,15,17,32,13.30
2016,04,15,17,33,13.30
2016,04,15,17,34,13.30
2016,04,15,17,35,13.30
2016,04,15,17,36,13.30
2016,04,15,17,37,13.30
2016,04,15,17,38,13.30
2016,04,15,17,39,13.30
2016,04,15,17,40,13.30